#timestamp,LO_Frequency,Hit,StdDev 
1699916415.6,286046999.4,N
1699916435.5,286046997.2,Y
1699916455.3,286046998.9,P
1699916475.2,286046998.2,P
1699916495.9,286047001.2,P
1699916515.7,286046999.3,N
1699916535.6,286046998.5,N
1699916555.4,286046996.9,Y
1699916575.2,286046999.5,P
1699916595.1,286046997.6,P
1699916596.0,286046997.6,N
1699916615.8,286046997.9,N
1699916635.7,286046997.4,Y
1699916655.5,286046998.9,P
1699916675.4,286047000.9,P
1699916695.2,286047000.6,N
1699916715.0,286047001.1,N
1699916715.9,286047001.1,N
1699916735.8,286047000.6,N
1699916755.6,286046999.5,N
1699916775.5,286046998.4,N
1699916795.3,286046998.5,N
1699916815.1,286046999.2,N
1699916835.9,286046996.9,N
1699916855.7,286046996.5,N
1699916875.5,286046998.1,N
1699916895.4,286046998.3,N
1699916915.2,286046996.6,N
1699916935.0,286046999.6,N
1699916936.0,286046999.6,N
1699916955.8,286046999.5,N
1699916975.6,286046997.4,N
1699916995.5,286046997.8,N
1699917015.3,286046996.8,N
1699917035.1,286046996.6,N
1699917055.9,286046996.7,N
1699917075.7,286046996.8,N
1699917095.6,286046997.1,N
1699917115.4,286046997.4,N
1699917135.2,286046997.3,N
1699917155.1,286046997.2,N
1699917156.0,286046997.2,N
1699917175.8,286046997.2,N
1699917195.6,286046996.7,N
1699917215.5,286046997.3,N
1699917235.3,286046996.9,N
1699917255.1,286046999.4,N
1699917275.9,286046999.6,N
1699917295.7,286046999.5,N
1699917315.6,286046996.9,N
1699917335.4,286046997.0,N
1699917355.2,286046997.9,N
1699917375.1,286046999.5,N
1699917376.0,286046999.5,N
1699917395.8,286046997.5,N
1699917415.6,286046997.4,N
1699917435.5,286046997.9,N
1699917455.3,286046993.4,Y
1699917475.2,286046998.0,P
1699917495.0,286046995.0,P
1699917495.9,286046995.0,P
1699917515.8,286046995.0,Y
1699917535.6,286046998.1,P
1699917555.4,286047000.0,N
1699917575.3,286047000.6,N
1699917595.1,286046998.5,N
1699917615.8,286047000.9,N
1699917635.7,286047000.9,N
1699917655.5,286047000.5,N
1699917675.4,286046998.3,N
1699917695.2,286046998.8,N
1699917715.0,286047001.1,N
1699917715.9,286047001.1,N
1699917735.8,286047001.1,N
1699917755.6,286046999.5,N
1699917805.5,286046999.1,E
1699917815.4,286046999.0,N
1699917835.2,286046998.4,P
1699917855.1,286047000.4,N
1699917856.0,286047000.4,N
1699917875.8,286047000.6,N
1699917895.6,286047000.9,N
1699917915.5,286046998.6,N
1699917935.3,286047001.2,N
1699917955.2,286046998.8,N
1699917975.9,286046998.8,N
1699917995.7,286046998.4,N
1699918015.6,286046998.9,N
1699918035.4,286046999.0,N
1699918055.2,286046998.3,N
1699918075.1,286047000.8,N
1699918076.0,286047000.8,N
1699918095.8,286047000.6,N
1699918115.7,286046998.5,N
1699918135.5,286047001.0,N
1699918155.3,286047001.2,N
1699918175.2,286047001.1,N
1699918195.0,286046999.1,N
1699918195.9,286046999.1,N
1699918215.7,286046998.6,N
1699918235.6,286047001.1,N
1699918255.4,286046998.5,N
1699918275.3,286047001.2,N
1699918295.1,286046998.5,N
1699918296.0,286046998.5,N
1699918315.8,286046996.5,Y
1699918335.7,286046996.6,P
1699918355.5,286046999.6,N
1699918375.3,286046996.5,N
1699918395.2,286046999.1,N
1699918415.0,286046998.2,N
1699918415.9,286046998.2,N
1699918435.8,286046998.8,N
1699918455.6,286046998.1,N
1699918475.5,286046998.1,N
1699918495.3,286047000.8,N
1699918515.1,286047001.2,N
1699918535.9,286047001.2,N
1699918555.7,286047000.6,N
1699918575.5,286047000.7,N
1699918595.4,286046998.5,N
1699918615.2,286047001.0,N
1699918635.0,286046998.9,N
1699918636.0,286046998.9,N
1699918655.8,286046996.8,N
1699918675.6,286046996.8,N
1699918695.5,286046999.5,N
1699918715.3,286046999.3,N
1699918735.1,286046999.4,N
1699918755.9,286046996.8,N
1699918775.7,286046997.1,N
1699918795.6,286046994.9,Y
1699918815.4,286046999.6,P
1699918835.2,286046999.2,N
1699918855.1,286046999.3,N
1699918856.0,286046999.3,N
1699918875.8,286046998.4,Y
1699918895.6,286046998.6,P
1699918915.5,286046996.9,P
1699918935.3,286046999.3,N
1699918955.2,286046998.8,N
1699918975.9,286047000.8,N
1699918995.7,286047000.3,N
1699919015.6,286046999.9,N
1699919035.4,286047000.2,N
1699919055.3,286046999.7,N
1699919075.1,286047002.2,N
1699919076.0,286047002.2,N
1699919095.8,286047000.2,N
1699919115.7,286047000.0,N
1699919135.5,286047000.1,N
1699919155.4,286047001.7,N
1699919175.2,286047001.0,N
1699919195.0,286047001.0,N
1699919195.9,286047001.0,N
1699919215.8,286047000.9,N
1699919235.6,286046998.8,N
1699919255.4,286046999.5,N
1699919275.3,286046997.0,N
1699919295.1,286046999.2,N
1699919315.9,286046998.5,N
1699919335.7,286046998.7,N
1699919355.5,286046998.6,N
1699919375.4,286046998.3,N
1699919395.2,286046998.6,N
1699919415.1,286046998.4,N
1699919416.0,286046998.4,N
1699919435.8,286046999.2,N
1699919455.6,286046998.9,N
1699919475.5,286046999.0,N
1699919495.3,286046999.1,N
1699919515.2,286046999.4,N
1699919535.9,286046999.2,N
1699919555.7,286046996.9,N
1699919575.6,286046998.8,N
1699919595.4,286047000.8,N
1699919615.2,286047000.9,N
1699919635.1,286047000.8,N
1699919636.0,286047000.8,N
1699919655.8,286047000.9,N
1699919675.7,286047001.0,N
1699919695.5,286047000.0,N
1699919715.3,286047000.1,N
1699919735.2,286047000.9,N
1699919755.0,286047001.2,N
1699919755.9,286047001.2,N
1699919775.8,286046998.7,N
1699919795.6,286046998.2,N
1699919815.4,286047000.7,N
1699919835.3,286047000.1,N
1699919855.1,286046999.9,N
1699919875.8,286047000.8,N
1699919895.7,286047000.6,N
1699919915.5,286047001.0,N
1699919935.4,286047002.7,N
1699919955.2,286047002.0,N
1699919975.0,286047002.2,N
1699919975.9,286047002.2,N
1699919995.8,286047002.1,N
